Wind_Speed
20 19 19 18 18 19 19 18 18 16 15 14 15 16 16 17 17 16 16 16 16 16 17 17 18 18 18 19 19 19 20 21 21 22 21 20 20 20 20 20 20 21 20 20
21 20 20 19 19 19 20 20 19 18 17 17 17 17 18 18 18 17 16 16 17 17 17 18 18 19 19 20 20 20 21 22 22 22 22 22 21 21 20 20 20 21 21 21
20 19 20 21 20 20 21 20 19 19 18 18 18 18 18 18 18 17 16 16 17 17 18 18 19 20 21 21 22 21 21 21 21 22 22 22 22 22 21 21 22 22 22 22
21 21 22 20 20 20 21 21 20 20 19 20 20 20 19 19 19 18 17 17 18 18 19 20 20 21 22 23 23 23 23 22 21 22 22 23 23 23 23 23 23 23 23 23
24 24 24 22 21 21 21 21 20 20 20 20 20 19 19 19 20 19 19 19 20 20 20 21 22 22 23 23 23 23 23 23 23 23 23 24 24 24 24 24 24 25 25 24
26 26 25 23 22 22 21 21 21 21 21 22 21 20 20 20 21 21 21 21 21 22 22 22 23 23 23 23 23 24 24 24 24 24 24 25 25 25 25 25 25 25 25 25
28 27 26 24 24 22 22 21 21 22 21 21 20 20 20 21 21 22 21 22 22 23 23 23 23 24 24 25 24 24 24 24 25 25 25 25 25 25 25 25 26 26 26 26
28 28 27 25 24 23 22 22 22 22 21 21 21 21 21 21 22 22 22 23 22 23 24 24 24 24 25 25 25 25 24 24 25 25 26 26 26 26 27 27 27 27 26 26
29 29 27 26 25 24 23 23 23 23 22 22 23 23 23 23 23 23 23 24 25 25 25 25 25 25 25 25 26 26 25 26 26 26 27 27 27 27 28 28 28 27 27 27
31 30 29 28 27 25 25 24 24 24 23 23 24 24 24 25 25 25 25 25 26 26 26 26 26 26 26 27 27 27 27 27 27 27 27 27 27 27 28 28 27 27 26 26
31 29 28 27 26 26 25 25 24 24 24 24 24 25 26 26 26 26 26 26 25 26 25 26 26 27 27 28 27 27 27 26 26 26 27 27 27 27 27 27 26 26 25 25
30 30 29 28 27 27 27 26 25 25 25 25 26 26 27 27 27 27 27 27 27 27 27 27 28 28 27 28 27 26 26 26 26 26 26 27 28 28 28 27 27 27 26 25
31 30 29 29 28 28 27 27 27 27 27 27 28 28 28 28 28 27 27 27 27 27 27 27 26 25 25 26 26 27 27 27 27 27 27 27 27 28 28 27 27 27 27 26
30 30 30 30 29 29 28 28 28 28 28 28 29 29 29 28 28 28 28 27 28 27 26 26 26 26 26 26 26 26 27 27 27 27 27 27 27 28 28 27 27 27 26 26
31 31 31 30 29 30 30 29 29 28 28 29 30 30 30 30 28 28 28 28 28 28 27 27 27 27 26 25 25 26 26 27 26 27 27 28 28 28 27 27 26 26 25 26
31 31 31 31 30 30 30 29 29 29 29 29 30 30 30 30 29 29 28 28 28 28 28 27 26 26 26 25 25 26 27 27 27 27 27 27 27 27 27 26 26 25 25 25
30 30 31 31 30 30 30 29 29 30 30 29 29 29 29 29 29 28 28 28 28 28 28 27 27 27 26 26 26 26 26 26 26 27 27 27 27 26 26 26 26 25 26 26
30 30 30 31 30 30 29 29 29 30 29 29 29 29 28 28 27 28 28 27 27 27 28 28 27 27 27 27 27 26 26 26 27 27 27 27 27 27 27 26 25 26 26 26
30 30 30 31 31 30 30 30 30 30 30 30 30 29 29 28 27 28 28 28 28 27 27 28 27 27 27 28 28 27 27 26 27 26 26 26 26 26 26 25 26 26 25 25
30 30 30 30 30 30 30 31 31 31 31 30 30 30 30 28 27 26 27 28 28 28 28 28 28 28 29 29 29 29 28 27 27 27 26 25 25 25 25 26 26 25 25 25
29 29 30 30 30 31 31 30 30 30 30 30 29 29 29 29 28 28 28 27 27 28 28 28 28 28 29 29 29 29 28 27 26 26 26 26 26 26 26 26 25 25 24 24
27 28 29 29 29 29 30 30 29 29 29 29 29 29 29 28 28 28 27 27 27 27 27 27 28 28 29 28 28 28 28 27 26 26 27 27 27 26 26 26 26 25 24 24
25 26 27 28 28 28 28 29 29 29 30 29 29 29 28 28 27 27 27 27 27 27 26 27 27 28 28 28 27 27 27 27 26 27 27 27 26 26 26 26 25 25 24 24
25 25 26 26 27 28 28 29 29 29 29 29 28 29 28 28 27 27 27 27 26 26 25 25 26 27 27 27 27 27 27 26 26 26 26 26 26 26 25 26 25 25 24 24
24 24 24 25 26 26 27 28 28 27 27 27 27 27 27 27 26 26 25 25 25 25 25 25 26 26 26 26 26 25 25 25 25 26 26 26 25 25 24 25 25 25 24 24
23 24 24 24 24 25 25 26 26 26 26 26 26 26 26 26 26 25 25 25 24 23 24 24 25 25 25 24 24 23 24 24 24 24 24 24 24 24 23 24 24 24 24 24
23 24 24 24 24 23 23 24 25 25 25 25 25 24 24 25 25 24 24 23 22 22 23 23 23 24 24 24 24 24 24 24 24 23 23 24 24 24 23 23 24 24 24 24
Wind_Direction
260 261 260 259 260 263 268 271 274 277 278 281 285 289 293 296 298 299 302 304 304 303 306 308 309 310 310 312 312 312 310 311 310 309 306 308 309 307 305 305 306 307 309 310
259 259 257 259 263 265 268 272 273 274 278 282 286 292 295 296 295 296 300 302 303 303 305 307 307 307 308 310 311 311 310 310 311 312 310 310 312 308 304 305 306 307 307 308
256 257 259 262 265 267 270 272 273 276 277 282 287 291 294 294 292 296 299 301 303 305 307 307 306 306 306 307 309 309 308 309 311 311 312 313 312 310 307 304 304 304 303 303
256 257 260 263 266 269 271 272 272 276 281 282 285 288 290 293 295 297 299 302 303 304 305 305 305 306 306 306 307 307 307 307 308 309 311 312 312 309 307 305 303 302 302 302
257 258 260 262 264 267 270 271 274 276 278 281 283 285 288 292 294 296 299 301 302 303 304 304 305 305 306 306 307 307 306 307 307 308 310 309 309 308 307 306 305 304 306 305
258 260 260 261 264 268 269 270 273 275 278 282 283 285 290 292 293 294 297 299 299 300 302 303 303 304 305 304 304 304 304 305 305 306 308 308 307 305 305 305 305 305 304 306
256 258 259 261 264 267 269 271 272 275 278 282 285 288 290 291 292 293 294 296 298 298 299 300 302 303 304 303 303 304 303 304 305 306 307 308 306 304 303 303 303 303 304 304
253 256 258 262 264 266 270 273 273 275 277 279 282 285 289 292 293 293 294 295 296 297 298 301 303 303 303 304 304 303 303 304 304 305 306 306 305 304 303 303 303 303 303 303
252 256 258 260 260 263 267 270 271 273 276 278 280 283 286 291 294 294 293 295 298 300 298 299 301 302 302 304 305 303 303 304 305 305 306 306 306 305 305 306 304 303 302 302
252 255 257 259 260 263 266 270 272 273 275 276 279 282 286 291 293 293 293 295 296 297 297 298 299 300 301 301 303 302 300 301 302 304 306 306 306 306 306 306 305 304 302 301
252 254 257 259 262 265 267 269 271 273 275 276 278 281 285 288 290 291 291 293 295 296 297 297 297 299 300 300 300 300 300 301 302 304 307 307 308 308 306 305 304 303 302 302
253 254 257 259 261 264 267 268 270 271 272 274 276 280 283 286 288 289 289 290 293 295 296 297 297 297 299 300 299 299 300 301 303 305 307 308 309 309 307 305 303 301 301 300
252 253 255 258 260 262 265 268 269 270 272 273 276 279 283 286 287 287 288 289 291 294 295 296 298 298 299 300 299 300 301 301 303 305 307 308 309 309 308 307 305 302 301 301
250 253 255 258 260 262 265 266 268 270 270 272 275 278 281 284 285 286 288 289 291 292 293 295 297 298 298 298 298 299 300 302 303 305 307 308 309 310 310 308 305 303 302 302
252 254 257 259 261 263 264 265 267 270 272 273 275 277 279 281 283 285 287 289 291 292 292 294 297 297 296 297 297 298 300 301 303 305 307 307 308 309 310 309 307 305 304 303
251 254 256 258 261 263 264 264 267 270 272 274 275 277 278 280 282 284 286 287 290 291 292 294 296 296 296 297 299 300 301 301 302 303 306 308 308 309 309 309 308 306 306 306
251 253 255 257 260 261 263 265 267 269 271 273 275 275 277 279 281 282 283 285 287 289 292 293 295 295 296 298 299 299 299 299 300 301 304 305 305 306 308 308 307 307 307 307
251 253 256 257 258 260 263 265 267 269 271 272 273 275 277 278 280 282 283 283 285 287 289 291 293 294 294 296 298 296 296 297 299 301 303 303 303 304 305 305 306 306 306 306
252 255 257 258 260 260 262 264 266 268 270 271 272 272 273 274 278 281 282 282 284 286 288 289 290 292 294 295 297 297 296 297 300 301 302 301 302 304 305 304 304 304 305 306
254 255 257 258 260 262 263 265 266 268 269 269 270 271 272 273 275 279 281 283 284 286 287 288 289 291 293 294 295 297 298 299 300 299 299 299 300 302 303 304 304 304 306 306
255 256 257 260 261 262 264 265 266 267 268 269 270 271 273 274 276 279 281 282 284 286 286 288 290 292 293 293 293 294 296 298 298 298 298 298 299 300 303 305 305 305 306 306
257 257 258 261 262 263 264 264 265 266 268 269 270 270 274 276 277 279 281 283 285 285 286 288 291 292 293 293 292 292 293 295 297 297 298 298 299 300 302 304 306 306 306 305
259 260 261 262 262 262 263 265 266 267 268 269 270 271 272 275 277 278 279 281 284 285 286 288 291 293 294 293 292 292 293 294 297 298 298 298 298 299 300 302 304 305 306 307
262 263 263 263 262 263 265 266 268 269 269 268 269 271 274 275 278 280 281 283 283 284 286 288 291 292 293 293 291 293 295 295 295 296 297 300 300 300 300 301 302 303 304 305
263 265 265 266 266 267 267 268 268 269 268 268 270 271 273 276 278 280 281 281 282 283 285 286 289 290 290 292 293 294 295 295 295 296 298 299 300 300 300 302 302 302 304 305
263 265 266 267 269 271 271 270 268 269 269 269 270 272 274 275 276 277 279 281 281 282 285 287 287 288 288 290 292 293 293 295 296 297 299 300 301 301 301 302 303 305 306 307
262 264 265 267 269 271 271 270 268 267 267 268 269 270 271 273 275 277 280 280 281 284 286 287 288 288 288 289 292 293 294 294 297 300 302 302 302 303 302 302 302 304 305 306
Height
5873 5874 5874 5875 5876 5876 5877 5877 5877 5877 5877 5877 5876 5875 5874 5873 5871 5870 5869 5867 5865 5863 5861 5858 5856 5854 5852 5849 5847 5844 5841 5838 5836 5833 5830 5828 5825 5823 5820 5818 5816 5814 5812 5810
5868 5869 5870 5870 5871 5872 5872 5872 5873 5873 5873 5873 5872 5871 5870 5869 5867 5866 5864 5863 5861 5859 5856 5854 5852 5850 5847 5845 5842 5840 5837 5834 5831 5829 5826 5823 5820 5818 5815 5813 5811 5809 5807 5804
5863 5864 5864 5865 5867 5867 5867 5868 5868 5868 5869 5868 5868 5867 5865 5864 5863 5861 5860 5858 5856 5854 5852 5850 5847 5845 5843 5840 5838 5835 5832 5829 5827 5824 5821 5818 5816 5813 5811 5808 5806 5804 5801 5799
5858 5859 5860 5863 5862 5862 5862 5863 5863 5863 5864 5863 5863 5861 5861 5859 5858 5857 5855 5854 5852 5850 5847 5845 5843 5840 5837 5835 5832 5830 5827 5825 5822 5820 5817 5814 5811 5808 5806 5803 5801 5798 5796 5793
5852 5853 5854 5856 5857 5857 5857 5858 5858 5858 5858 5858 5857 5856 5856 5854 5853 5852 5850 5849 5847 5845 5842 5840 5837 5835 5832 5829 5827 5825 5822 5820 5817 5814 5811 5808 5806 5803 5800 5798 5795 5792 5790 5787
5846 5847 5848 5852 5852 5852 5853 5853 5853 5853 5853 5852 5852 5851 5851 5849 5848 5846 5844 5843 5841 5839 5837 5834 5832 5829 5827 5824 5822 5820 5817 5814 5811 5808 5806 5803 5800 5797 5794 5792 5789 5786 5784 5781
5839 5840 5842 5845 5846 5847 5848 5849 5848 5848 5847 5847 5846 5846 5846 5844 5842 5841 5839 5837 5835 5833 5831 5829 5826 5824 5821 5819 5816 5814 5811 5808 5806 5803 5800 5797 5794 5791 5788 5785 5783 5780 5778 5775
5833 5835 5838 5839 5840 5841 5842 5842 5841 5841 5841 5841 5841 5840 5839 5838 5837 5835 5833 5832 5830 5827 5825 5823 5820 5818 5816 5813 5810 5808 5805 5803 5800 5797 5794 5791 5788 5784 5781 5779 5776 5773 5770 5768
5827 5830 5831 5832 5833 5834 5835 5835 5835 5835 5835 5835 5835 5834 5833 5832 5830 5829 5827 5825 5823 5821 5819 5817 5815 5812 5810 5807 5804 5801 5799 5796 5793 5790 5787 5784 5781 5778 5775 5772 5768 5766 5763 5761
5819 5821 5823 5824 5826 5827 5828 5829 5829 5829 5829 5829 5828 5827 5826 5825 5824 5822 5821 5819 5817 5815 5813 5811 5808 5806 5803 5800 5797 5794 5792 5789 5786 5784 5781 5777 5774 5771 5768 5764 5761 5758 5756 5753
5811 5813 5815 5817 5818 5820 5820 5821 5822 5822 5822 5822 5821 5820 5819 5818 5817 5816 5814 5812 5810 5808 5806 5804 5801 5799 5796 5793 5791 5788 5785 5782 5779 5777 5774 5770 5767 5764 5761 5757 5754 5752 5749 5746
5803 5806 5808 5810 5811 5812 5813 5814 5815 5815 5815 5815 5814 5813 5812 5811 5810 5809 5807 5805 5803 5801 5799 5796 5794 5792 5789 5786 5784 5781 5778 5776 5773 5770 5767 5763 5760 5757 5753 5750 5747 5745 5742 5739
5795 5797 5800 5801 5803 5804 5805 5806 5807 5807 5807 5807 5807 5806 5805 5804 5802 5801 5799 5797 5796 5794 5791 5789 5786 5784 5782 5779 5776 5774 5771 5769 5766 5763 5760 5757 5753 5750 5747 5744 5740 5737 5735 5732
5787 5789 5792 5793 5795 5796 5797 5798 5798 5799 5799 5799 5798 5798 5797 5796 5795 5793 5792 5790 5788 5786 5784 5781 5779 5777 5774 5772 5769 5767 5764 5762 5759 5756 5753 5749 5746 5743 5740 5736 5734 5730 5728 5725
5779 5781 5784 5786 5787 5788 5789 5790 5790 5791 5791 5791 5790 5790 5789 5788 5787 5785 5784 5782 5780 5778 5776 5774 5772 5769 5767 5765 5762 5760 5757 5755 5752 5749 5746 5743 5739 5736 5733 5730 5727 5724 5721 5718
5771 5773 5775 5777 5779 5780 5781 5781 5782 5782 5782 5782 5781 5781 5780 5779 5778 5777 5776 5774 5773 5771 5769 5766 5764 5762 5759 5757 5755 5753 5750 5748 5745 5742 5739 5736 5733 5729 5726 5723 5720 5717 5714 5711
5763 5765 5767 5769 5770 5771 5772 5773 5774 5774 5774 5773 5773 5772 5771 5771 5770 5769 5768 5767 5765 5763 5761 5759 5757 5755 5752 5750 5748 5745 5743 5740 5738 5735 5732 5729 5726 5723 5719 5717 5713 5710 5708 5704
5755 5757 5759 5760 5762 5763 5764 5765 5765 5765 5765 5765 5764 5764 5763 5763 5762 5761 5760 5758 5757 5756 5754 5752 5750 5748 5745 5743 5740 5737 5735 5733 5730 5728 5725 5722 5719 5716 5713 5710 5707 5704 5701 5698
5747 5749 5750 5752 5753 5754 5755 5756 5756 5757 5756 5756 5756 5755 5755 5755 5754 5753 5752 5751 5750 5748 5746 5744 5742 5740 5738 5735 5733 5730 5728 5726 5723 5720 5718 5715 5712 5709 5706 5703 5700 5697 5694 5691
5739 5740 5742 5743 5744 5745 5746 5747 5747 5747 5747 5747 5747 5747 5746 5746 5745 5745 5744 5743 5742 5740 5738 5736 5734 5732 5730 5727 5725 5723 5720 5718 5716 5713 5710 5707 5705 5702 5699 5696 5693 5690 5687 5684
5730 5732 5733 5734 5735 5736 5737 5738 5738 5739 5739 5739 5739 5739 5738 5738 5737 5736 5735 5735 5733 5731 5730 5728 5726 5724 5721 5719 5717 5715 5713 5710 5708 5705 5703 5700 5698 5695 5693 5690 5687 5683 5680 5677
5722 5723 5725 5726 5726 5727 5728 5729 5730 5730 5730 5730 5730 5730 5730 5729 5728 5727 5727 5726 5725 5723 5721 5719 5717 5715 5713 5711 5709 5707 5705 5703 5700 5698 5696 5693 5690 5688 5685 5683 5680 5677 5674 5671
5714 5715 5716 5717 5718 5719 5720 5720 5721 5722 5722 5722 5722 5722 5721 5721 5720 5719 5719 5718 5716 5715 5713 5711 5709 5707 5705 5703 5701 5699 5697 5695 5693 5691 5688 5685 5683 5681 5678 5676 5673 5670 5667 5664
5707 5708 5709 5709 5710 5711 5712 5712 5712 5713 5713 5713 5713 5713 5713 5712 5712 5711 5710 5709 5707 5706 5704 5703 5701 5699 5697 5695 5693 5691 5689 5687 5685 5683 5680 5678 5675 5673 5671 5668 5666 5663 5660 5657
5700 5701 5701 5702 5702 5702 5703 5703 5704 5704 5705 5705 5705 5705 5705 5704 5703 5703 5701 5700 5699 5698 5696 5695 5693 5691 5689 5687 5685 5683 5681 5679 5677 5675 5673 5671 5668 5666 5663 5661 5659 5656 5653 5650
5693 5693 5694 5694 5694 5694 5695 5695 5695 5696 5696 5696 5696 5696 5696 5696 5695 5694 5693 5692 5691 5690 5688 5687 5685 5683 5681 5679 5677 5676 5674 5672 5670 5668 5665 5663 5661 5658 5656 5654 5651 5649 5646 5644
5685 5686 5686 5686 5687 5687 5687 5687 5687 5688 5688 5688 5688 5688 5688 5687 5687 5686 5685 5684 5683 5682 5681 5679 5677 5675 5674 5672 5671 5669 5667 5665 5663 5660 5658 5656 5653 5651 5649 5647 5645 5642 5640 5637